Time,TemperatureF,DewpointF,PressureIn,WindDirection,WindDirectionDegrees,WindSpeedMPH,WindSpeedGustMPH,Humidity,HourlyPrecipIn,Conditions,Clouds,dailyrainin,SoftwareType,DateUTC
2013-04-09 00:00:00,48.5,44.1,30.13,North,0,0.0,0.0,84,0.00,,,0.00,meteo_script,2013-04-09 04:00:00,
2013-04-09 00:05:00,48.5,44.2,30.13,South,180,0.0,1.0,84,0.00,,,0.00,meteo_script,2013-04-09 04:05:00,
2013-04-09 00:10:00,48.7,44.7,30.13,South,180,0.1,1.0,86,0.00,,,0.00,meteo_script,2013-04-09 04:10:00,
2013-04-09 00:15:00,48.9,44.9,30.13,South,180,0.2,2.0,86,0.00,,,0.00,meteo_script,2013-04-09 04:15:00,
2013-04-09 00:20:00,49.1,45.3,30.13,South,180,0.3,3.0,86,0.00,,,0.00,meteo_script,2013-04-09 04:20:00,
2013-04-09 00:30:00,49.4,45.7,30.13,South,180,0.2,2.0,87,0.00,,,0.00,meteo_script,2013-04-09 04:30:00,
2013-04-09 00:35:00,49.5,45.9,30.13,SSE,161,0.6,3.0,87,0.00,,,0.00,meteo_script,2013-04-09 04:35:00,
2013-04-09 00:45:00,49.8,46.2,30.12,SSE,159,0.7,4.0,87,0.00,,,0.00,meteo_script,2013-04-09 04:45:00,
2013-04-09 00:55:00,49.8,46.1,30.12,South,171,0.5,2.0,87,0.00,,,0.00,meteo_script,2013-04-09 04:55:00,
2013-04-09 01:00:00,49.8,46.1,30.12,South,171,0.4,2.0,87,0.00,,,0.00,meteo_script,2013-04-09 05:00:00,
2013-04-09 01:05:00,49.7,46.2,30.12,South,173,0.8,5.0,87,0.00,,,0.00,meteo_script,2013-04-09 05:05:00,
2013-04-09 01:10:00,49.7,46.0,30.11,SE,146,1.6,5.0,87,0.00,,,0.00,meteo_script,2013-04-09 05:10:00,
2013-04-09 01:15:00,49.6,45.9,30.11,SSW,198,1.6,4.0,87,0.00,,,0.00,meteo_script,2013-04-09 05:15:00,
2013-04-09 01:20:00,49.5,45.8,30.10,SSE,153,1.2,4.0,87,0.00,,,0.00,meteo_script,2013-04-09 05:20:00,
2013-04-09 01:25:00,49.3,45.6,30.10,SSE,152,1.0,4.0,87,0.00,,,0.00,meteo_script,2013-04-09 05:25:00,
2013-04-09 01:35:00,49.2,45.6,30.10,South,186,1.0,3.0,87,0.00,,,0.00,meteo_script,2013-04-09 05:35:00,
2013-04-09 01:40:00,49.1,45.4,30.09,SSE,161,1.1,4.0,87,0.00,,,0.00,meteo_script,2013-04-09 05:40:00,
2013-04-09 01:50:00,48.9,45.2,30.09,SSE,161,1.0,5.0,87,0.00,,,0.00,meteo_script,2013-04-09 05:50:00,
2013-04-09 01:55:00,48.8,44.8,30.09,SSW,207,1.5,9.0,86,0.00,,,0.00,meteo_script,2013-04-09 05:55:00,
2013-04-09 02:00:00,48.7,45.0,30.08,South,181,1.8,4.0,87,0.00,,,0.00,meteo_script,2013-04-09 06:00:00,
2013-04-09 02:10:00,48.4,44.7,30.08,SSE,157,1.0,4.0,87,0.00,,,0.00,meteo_script,2013-04-09 06:10:00,
2013-04-09 02:15:00,48.4,44.7,30.08,SSE,157,0.9,3.0,87,0.00,,,0.00,meteo_script,2013-04-09 06:15:00,
2013-04-09 02:25:00,48.3,44.5,30.07,SSE,158,0.9,4.0,86,0.00,,,0.00,meteo_script,2013-04-09 06:25:00,
2013-04-09 02:30:00,48.3,44.4,30.06,SSE,157,1.3,4.0,86,0.00,,,0.00,meteo_script,2013-04-09 06:30:00,
2013-04-09 02:35:00,48.2,44.5,30.06,SSE,148,1.2,4.0,87,0.00,,,0.00,meteo_script,2013-04-09 06:35:00,
2013-04-09 02:40:00,48.2,44.5,30.06,South,185,1.1,6.0,87,0.00,,,0.00,meteo_script,2013-04-09 06:40:00,
2013-04-09 02:45:00,48.1,44.4,30.07,South,187,1.0,5.0,87,0.00,,,0.00,meteo_script,2013-04-09 06:45:00,
2013-04-09 02:55:00,48.0,44.3,30.06,SSE,160,1.0,4.0,87,0.00,,,0.00,meteo_script,2013-04-09 06:55:00,
2013-04-09 03:05:00,47.8,44.4,30.05,South,173,1.0,4.0,88,0.00,,,0.00,meteo_script,2013-04-09 07:05:00,
2013-04-09 03:15:00,47.6,44.2,30.05,SSE,159,0.9,4.0,88,0.00,,,0.00,meteo_script,2013-04-09 07:15:00,
2013-04-09 03:20:00,47.5,44.1,30.04,SSE,159,0.6,2.0,88,0.00,,,0.00,meteo_script,2013-04-09 07:20:00,
2013-04-09 03:25:00,47.5,44.4,30.04,South,191,0.7,4.0,88,0.00,,,0.00,meteo_script,2013-04-09 07:25:00,
2013-04-09 03:35:00,47.4,44.3,30.03,SSW,192,0.6,5.0,89,0.00,,,0.00,meteo_script,2013-04-09 07:35:00,
2013-04-09 03:45:00,47.3,44.5,30.03,SSW,202,0.3,3.0,89,0.00,,,0.00,meteo_script,2013-04-09 07:45:00,
2013-04-09 03:50:00,47.1,44.2,30.03,SSW,202,0.3,2.0,89,0.00,,,0.00,meteo_script,2013-04-09 07:50:00,
2013-04-09 03:55:00,46.9,44.1,30.02,SSW,198,0.4,3.0,90,0.00,,,0.00,meteo_script,2013-04-09 07:55:00,
2013-04-09 04:00:00,46.7,44.1,30.02,SSW,213,0.5,3.0,90,0.00,,,0.00,meteo_script,2013-04-09 08:00:00,
2013-04-09 04:10:00,46.2,43.7,30.01,North,0,0.1,1.0,91,0.00,,,0.00,meteo_script,2013-04-09 08:10:00,
2013-04-09 04:15:00,45.8,43.4,30.01,North,0,0.0,1.0,91,0.00,,,0.00,meteo_script,2013-04-09 08:15:00,
2013-04-09 04:20:00,45.6,43.1,30.01,WSW,254,0.0,1.0,91,0.00,,,0.00,meteo_script,2013-04-09 08:20:00,
2013-04-09 04:30:00,45.9,43.8,29.99,South,175,0.2,3.0,92,0.00,,,0.00,meteo_script,2013-04-09 08:30:00,
2013-04-09 04:40:00,46.3,44.1,30.00,North,0,0.2,2.0,92,0.00,,,0.00,meteo_script,2013-04-09 08:40:00,
2013-04-09 04:50:00,46.4,44.2,30.01,South,175,0.1,2.0,92,0.00,,,0.00,meteo_script,2013-04-09 08:50:00,
2013-04-09 04:55:00,46.4,44.1,30.03,South,175,0.1,1.0,91,0.00,,,0.00,meteo_script,2013-04-09 08:55:00,
2013-04-09 05:00:00,46.5,44.0,30.05,West,278,0.2,2.0,91,0.00,,,0.00,meteo_script,2013-04-09 09:00:00,
2013-04-09 05:10:00,46.7,44.5,30.03,WNW,287,0.3,2.0,92,0.00,,,0.00,meteo_script,2013-04-09 09:10:00,
2013-04-09 05:15:00,46.6,45.2,30.04,North,0,0.2,1.0,94,0.00,,,0.00,meteo_script,2013-04-09 09:15:00,
2013-04-09 05:20:00,46.1,45.7,30.04,WNW,287,0.0,1.0,98,0.00,,,0.00,meteo_script,2013-04-09 09:20:00,
2013-04-09 05:30:00,45.1,45.1,30.01,WNW,287,0.3,2.0,100,0.02,,,0.02,meteo_script,2013-04-09 09:30:00,
2013-04-09 05:40:00,44.6,44.6,29.99,North,0,0.0,0.0,100,0.02,,,0.02,meteo_script,2013-04-09 09:40:00,
2013-04-09 05:50:00,44.3,44.3,29.98,North,0,0.1,0.0,100,0.02,,,0.02,meteo_script,2013-04-09 09:50:00,
2013-04-09 05:55:00,44.2,44.2,29.98,North,0,0.0,0.0,100,0.02,,,0.02,meteo_script,2013-04-09 09:55:00,
2013-04-09 06:00:00,44.1,44.1,29.98,North,0,0.0,0.0,100,0.02,,,0.02,meteo_script,2013-04-09 10:00:00,
2013-04-09 06:10:00,44.0,44.0,29.98,North,0,0.0,0.0,100,0.02,,,0.02,meteo_script,2013-04-09 10:10:00,
2013-04-09 06:15:00,44.0,44.0,29.98,North,0,0.0,0.0,100,0.02,,,0.02,meteo_script,2013-04-09 10:15:00,
2013-04-09 06:20:00,44.0,44.0,29.98,North,0,0.0,0.0,100,0.02,,,0.02,meteo_script,2013-04-09 10:20:00,
2013-04-09 06:25:00,44.1,44.1,29.98,North,0,0.0,0.0,100,0.02,,,0.02,meteo_script,2013-04-09 10:25:00,
2013-04-09 06:30:00,44.2,44.2,29.98,North,0,0.0,0.0,100,0.00,,,0.02,meteo_script,2013-04-09 10:30:00,
2013-04-09 06:40:00,44.4,44.4,29.98,North,0,0.0,0.0,100,0.00,,,0.02,meteo_script,2013-04-09 10:40:00,
2013-04-09 06:45:00,44.4,44.4,29.98,North,0,0.0,0.0,100,0.00,,,0.02,meteo_script,2013-04-09 10:45:00,
2013-04-09 06:55:00,44.6,44.6,29.97,North,0,0.0,0.0,100,0.00,,,0.02,meteo_script,2013-04-09 10:55:00,
2013-04-09 07:00:00,44.7,44.7,29.98,North,0,0.0,0.0,100,0.00,,,0.02,meteo_script,2013-04-09 11:00:00,
2013-04-09 07:05:00,44.9,44.9,29.98,North,0,0.0,0.0,100,0.00,,,0.02,meteo_script,2013-04-09 11:05:00,
2013-04-09 07:15:00,45.2,45.2,29.97,North,0,0.0,0.0,100,0.00,,,0.02,meteo_script,2013-04-09 11:15:00,
2013-04-09 07:20:00,45.3,45.3,29.97,North,0,0.0,0.0,100,0.00,,,0.02,meteo_script,2013-04-09 11:20:00,
2013-04-09 07:30:00,45.4,45.4,29.98,North,0,0.0,1.0,100,0.00,,,0.02,meteo_script,2013-04-09 11:30:00,
2013-04-09 07:35:00,45.5,45.5,29.97,North,0,0.0,0.0,100,0.00,,,0.02,meteo_script,2013-04-09 11:35:00,
2013-04-09 07:40:00,45.5,45.5,29.97,North,0,0.0,0.0,100,0.00,,,0.02,meteo_script,2013-04-09 11:40:00,
2013-04-09 07:50:00,46.0,46.0,29.96,North,0,0.0,0.0,100,0.00,,,0.02,meteo_script,2013-04-09 11:50:00,
2013-04-09 07:55:00,46.1,46.1,29.96,North,0,0.0,0.0,100,0.00,,,0.02,meteo_script,2013-04-09 11:55:00,
2013-04-09 08:05:00,46.5,46.5,29.96,North,0,0.1,1.0,100,0.00,,,0.02,meteo_script,2013-04-09 12:05:00,
2013-04-09 08:10:00,46.6,46.6,29.96,North,0,0.1,1.0,100,0.00,,,0.02,meteo_script,2013-04-09 12:10:00,
2013-04-09 08:15:00,46.8,46.8,29.96,North,0,0.0,0.0,100,0.00,,,0.02,meteo_script,2013-04-09 12:15:00,
2013-04-09 08:25:00,47.0,47.0,29.95,North,0,0.0,0.0,100,0.00,,,0.02,meteo_script,2013-04-09 12:25:00,
2013-04-09 08:35:00,47.3,47.3,29.95,North,0,0.0,0.0,100,0.00,,,0.02,meteo_script,2013-04-09 12:35:00,
2013-04-09 08:45:00,47.5,47.5,29.95,North,0,0.0,0.0,100,0.00,,,0.02,meteo_script,2013-04-09 12:45:00,
2013-04-09 08:50:00,47.6,47.6,29.95,WNW,287,0.0,1.0,100,0.00,,,0.02,meteo_script,2013-04-09 12:50:00,
2013-04-09 09:00:00,47.7,47.7,29.94,WNW,287,0.1,2.0,100,0.00,,,0.02,meteo_script,2013-04-09 13:00:00,
2013-04-09 09:05:00,47.9,47.9,29.94,WNW,287,0.1,2.0,100,0.00,,,0.02,meteo_script,2013-04-09 13:05:00,
2013-04-09 09:15:00,48.4,48.4,29.94,North,0,0.1,1.0,100,0.00,,,0.02,meteo_script,2013-04-09 13:15:00,
2013-04-09 09:25:00,49.1,49.1,29.93,North,0,0.0,0.0,100,0.00,,,0.02,meteo_script,2013-04-09 13:25:00,
2013-04-09 09:30:00,49.4,49.4,29.93,North,0,0.0,0.0,100,0.00,,,0.02,meteo_script,2013-04-09 13:30:00,
2013-04-09 09:40:00,50.2,50.2,29.93,North,0,0.0,0.0,100,0.00,,,0.02,meteo_script,2013-04-09 13:40:00,
2013-04-09 09:45:00,50.6,50.6,29.93,WNW,287,0.0,1.0,100,0.00,,,0.02,meteo_script,2013-04-09 13:45:00,
2013-04-09 09:55:00,50.5,50.5,29.94,WNW,287,0.3,2.0,100,0.00,,,0.02,meteo_script,2013-04-09 13:55:00,
2013-04-09 10:05:00,51.0,51.0,29.95,WNW,288,0.4,4.0,100,0.00,,,0.02,meteo_script,2013-04-09 14:05:00,
2013-04-09 10:15:00,52.9,52.9,29.95,WNW,292,0.5,3.0,100,0.00,,,0.02,meteo_script,2013-04-09 14:15:00,
2013-04-09 10:20:00,54.4,54.4,29.94,NW,320,0.6,3.0,100,0.00,,,0.02,meteo_script,2013-04-09 14:20:00,
2013-04-09 10:30:00,57.4,56.5,29.94,NW,320,0.3,1.0,97,0.00,,,0.02,meteo_script,2013-04-09 14:30:00,
2013-04-09 10:35:00,58.7,57.0,29.95,NW,320,0.4,2.0,94,0.00,,,0.02,meteo_script,2013-04-09 14:35:00,
2013-04-09 10:40:00,60.1,57.7,29.95,NW,320,0.6,2.0,92,0.00,,,0.02,meteo_script,2013-04-09 14:40:00,
2013-04-09 10:45:00,61.0,58.2,29.95,NW,325,0.7,3.0,90,0.00,,,0.02,meteo_script,2013-04-09 14:45:00,
2013-04-09 10:55:00,63.3,58.9,29.94,NW,325,0.6,3.0,85,0.00,,,0.02,meteo_script,2013-04-09 14:55:00,
2013-04-09 11:05:00,64.0,58.7,29.94,North,351,0.5,4.0,82,0.00,,,0.02,meteo_script,2013-04-09 15:05:00,
2013-04-09 11:10:00,65.4,59.4,29.94,North,351,0.3,2.0,81,0.00,,,0.02,meteo_script,2013-04-09 15:10:00,
2013-04-09 11:15:00,66.4,60.5,29.93,NNW,341,0.5,4.0,81,0.00,,,0.02,meteo_script,2013-04-09 15:15:00,
2013-04-09 11:20:00,67.9,61.2,29.93,WNW,285,1.3,4.0,79,0.00,,,0.02,meteo_script,2013-04-09 15:20:00,
2013-04-09 11:30:00,70.3,61.9,29.93,WNW,285,1.5,3.0,74,0.00,,,0.02,meteo_script,2013-04-09 15:30:00,
2013-04-09 11:35:00,70.9,60.9,29.94,WNW,284,2.2,6.0,70,0.00,,,0.02,meteo_script,2013-04-09 15:35:00,
2013-04-09 11:45:00,68.7,57.4,29.94,NW,306,4.8,8.0,67,0.00,,,0.02,meteo_script,2013-04-09 15:45:00,
2013-04-09 11:50:00,66.7,56.4,29.94,WNW,287,4.2,7.0,69,0.00,,,0.02,meteo_script,2013-04-09 15:50:00,
2013-04-09 11:55:00,66.4,57.1,29.93,WNW,290,3.5,6.0,72,0.00,,,0.02,meteo_script,2013-04-09 15:55:00,
2013-04-09 12:05:00,69.7,58.2,29.93,WNW,295,3.5,7.0,66,0.00,,,0.02,meteo_script,2013-04-09 16:05:00,
2013-04-09 12:15:00,71.3,58.3,29.93,West,281,4.2,10.0,63,0.00,,,0.02,meteo_script,2013-04-09 16:15:00,
2013-04-09 12:20:00,71.8,57.9,29.93,WNW,286,5.2,12.0,61,0.00,,,0.02,meteo_script,2013-04-09 16:20:00,
2013-04-09 12:25:00,71.2,56.7,29.93,WNW,288,6.3,12.0,60,0.00,,,0.02,meteo_script,2013-04-09 16:25:00,
2013-04-09 12:30:00,71.2,57.0,29.93,WNW,292,6.7,13.0,60,0.00,,,0.02,meteo_script,2013-04-09 16:30:00,
2013-04-09 12:40:00,72.9,58.1,29.93,WNW,290,5.0,12.0,59,0.00,,,0.02,meteo_script,2013-04-09 16:40:00,
2013-04-09 12:45:00,74.1,58.4,29.92,NW,305,4.7,7.0,58,0.00,,,0.02,meteo_script,2013-04-09 16:45:00,
2013-04-09 12:55:00,74.5,57.8,29.93,WNW,294,4.6,9.0,56,0.00,,,0.02,meteo_script,2013-04-09 16:55:00,
2013-04-09 13:00:00,74.2,57.6,29.94,West,271,4.6,9.0,56,0.00,,,0.02,meteo_script,2013-04-09 17:00:00,
2013-04-09 13:05:00,73.4,57.9,29.93,WNW,291,3.8,8.0,58,0.00,,,0.02,meteo_script,2013-04-09 17:05:00,
2013-04-09 13:15:00,73.6,56.2,29.92,NW,318,4.0,10.0,54,0.00,,,0.02,meteo_script,2013-04-09 17:15:00,
2013-04-09 13:20:00,73.8,56.8,29.92,WNW,291,5.0,11.0,55,0.00,,,0.02,meteo_script,2013-04-09 17:20:00,
2013-04-09 13:25:00,74.4,57.2,29.93,WNW,291,4.4,8.0,54,0.00,,,0.02,meteo_script,2013-04-09 17:25:00,
2013-04-09 13:35:00,74.6,56.4,29.93,NW,324,4.4,12.0,53,0.00,,,0.02,meteo_script,2013-04-09 17:35:00,
2013-04-09 13:40:00,74.6,56.4,29.93,NW,322,4.4,8.0,53,0.00,,,0.02,meteo_script,2013-04-09 17:40:00,
2013-04-09 13:50:00,74.8,56.0,29.94,NW,319,5.1,11.0,52,0.00,,,0.02,meteo_script,2013-04-09 17:50:00,
2013-04-09 14:00:00,74.8,56.2,29.94,NW,318,4.3,9.0,52,0.00,,,0.02,meteo_script,2013-04-09 18:00:00,
2013-04-09 14:05:00,74.9,56.1,29.94,NW,310,4.5,10.0,52,0.00,,,0.02,meteo_script,2013-04-09 18:05:00,
2013-04-09 14:10:00,74.4,55.8,29.94,NW,315,5.2,12.0,52,0.00,,,0.02,meteo_script,2013-04-09 18:10:00,
2013-04-09 14:20:00,74.1,55.8,29.95,WNW,288,5.0,9.0,52,0.00,,,0.02,meteo_script,2013-04-09 18:20:00,
2013-04-09 14:25:00,74.0,56.3,29.95,West,281,4.6,7.0,54,0.00,,,0.02,meteo_script,2013-04-09 18:25:00,
2013-04-09 14:30:00,74.3,55.5,29.95,NW,311,3.7,7.0,51,0.00,,,0.02,meteo_script,2013-04-09 18:30:00,
2013-04-09 14:40:00,74.3,55.5,29.96,NW,318,3.7,6.0,52,0.00,,,0.02,meteo_script,2013-04-09 18:40:00,
2013-04-09 14:45:00,74.6,56.4,29.96,NW,310,3.1,8.0,53,0.00,,,0.02,meteo_script,2013-04-09 18:45:00,
2013-04-09 14:55:00,74.6,56.2,29.96,WNW,283,2.6,6.0,52,0.00,,,0.02,meteo_script,2013-04-09 18:55:00,
2013-04-09 15:00:00,74.9,56.0,29.96,NW,314,2.5,7.0,51,0.00,,,0.02,meteo_script,2013-04-09 19:00:00,
2013-04-09 15:05:00,74.6,56.0,29.96,NW,309,2.7,8.0,52,0.00,,,0.02,meteo_script,2013-04-09 19:05:00,
2013-04-09 15:10:00,74.5,55.7,29.96,West,266,2.6,5.0,52,0.00,,,0.02,meteo_script,2013-04-09 19:10:00,
2013-04-09 15:15:00,74.0,55.2,29.96,West,276,2.9,7.0,52,0.00,,,0.02,meteo_script,2013-04-09 19:15:00,
2013-04-09 15:25:00,73.7,55.4,29.96,WNW,290,3.5,7.0,52,0.00,,,0.02,meteo_script,2013-04-09 19:25:00,
2013-04-09 15:30:00,73.8,55.0,29.97,West,262,3.4,7.0,52,0.00,,,0.02,meteo_script,2013-04-09 19:30:00,
2013-04-09 15:35:00,73.8,55.6,29.96,WNW,290,3.0,6.0,53,0.00,,,0.02,meteo_script,2013-04-09 19:35:00,
2013-04-09 15:40:00,73.6,55.4,29.96,WNW,287,3.3,8.0,53,0.00,,,0.02,meteo_script,2013-04-09 19:40:00,
2013-04-09 15:50:00,73.3,54.9,29.96,West,259,1.9,8.0,52,0.00,,,0.02,meteo_script,2013-04-09 19:50:00,
2013-04-09 15:55:00,73.6,55.4,29.97,WNW,288,2.0,4.0,53,0.00,,,0.02,meteo_script,2013-04-09 19:55:00,
2013-04-09 16:00:00,73.5,54.6,29.97,NW,315,2.5,6.0,51,0.00,,,0.02,meteo_script,2013-04-09 20:00:00,
2013-04-09 16:10:00,72.8,55.2,29.96,West,266,2.8,8.0,54,0.00,,,0.02,meteo_script,2013-04-09 20:10:00,
2013-04-09 16:20:00,72.0,53.6,29.97,WNW,285,2.5,5.0,52,0.00,,,0.02,meteo_script,2013-04-09 20:20:00,
2013-04-09 16:25:00,71.5,54.2,29.97,WNW,285,3.1,9.0,54,0.00,,,0.02,meteo_script,2013-04-09 20:25:00,
2013-04-09 16:30:00,71.3,53.7,29.97,WSW,250,3.0,5.0,54,0.00,,,0.02,meteo_script,2013-04-09 20:30:00,
2013-04-09 16:35:00,70.9,53.5,29.97,WSW,242,2.6,6.0,54,0.00,,,0.02,meteo_script,2013-04-09 20:35:00,
2013-04-09 16:40:00,70.4,53.3,29.97,WNW,297,2.5,6.0,54,0.00,,,0.02,meteo_script,2013-04-09 20:40:00,
2013-04-09 16:45:00,70.2,53.4,29.97,WNW,290,2.4,4.0,55,0.00,,,0.02,meteo_script,2013-04-09 20:45:00,
2013-04-09 16:55:00,69.6,53.2,29.97,WSW,250,1.8,5.0,56,0.00,,,0.02,meteo_script,2013-04-09 20:55:00,
2013-04-09 17:05:00,68.2,52.0,29.98,SW,232,3.4,7.0,56,0.00,,,0.02,meteo_script,2013-04-09 21:05:00,
2013-04-09 17:10:00,67.7,52.0,29.98,NW,311,2.9,6.0,57,0.00,,,0.02,meteo_script,2013-04-09 21:10:00,
2013-04-09 17:20:00,67.0,52.0,30.00,WNW,297,1.9,6.0,58,0.00,,,0.02,meteo_script,2013-04-09 21:20:00,
2013-04-09 17:25:00,66.9,51.8,30.00,West,261,2.3,7.0,58,0.00,,,0.02,meteo_script,2013-04-09 21:25:00,
2013-04-09 17:30:00,67.0,51.7,30.00,West,275,2.4,5.0,58,0.00,,,0.02,meteo_script,2013-04-09 21:30:00,
2013-04-09 17:40:00,66.7,51.4,30.00,WSW,237,2.4,8.0,58,0.00,,,0.02,meteo_script,2013-04-09 21:40:00,
2013-04-09 17:45:00,66.5,51.8,30.01,WNW,285,1.9,4.0,59,0.00,,,0.02,meteo_script,2013-04-09 21:45:00,
2013-04-09 17:50:00,66.3,51.1,30.02,NW,311,1.8,5.0,58,0.00,,,0.02,meteo_script,2013-04-09 21:50:00,
2013-04-09 18:00:00,65.9,51.1,30.02,SW,227,1.9,7.0,59,0.00,,,0.02,meteo_script,2013-04-09 22:00:00,
2013-04-09 18:10:00,64.7,50.5,30.02,WSW,256,2.2,3.0,60,0.00,,,0.02,meteo_script,2013-04-09 22:10:00,
2013-04-09 18:20:00,63.6,50.3,30.03,West,268,1.7,5.0,61,0.00,,,0.02,meteo_script,2013-04-09 22:20:00,
2013-04-09 18:25:00,63.2,49.9,30.03,West,266,1.5,3.0,62,0.00,,,0.02,meteo_script,2013-04-09 22:25:00,
2013-04-09 18:30:00,62.9,49.8,30.02,WNW,291,0.8,2.0,62,0.00,,,0.02,meteo_script,2013-04-09 22:30:00,
2013-04-09 18:40:00,62.4,49.6,30.02,WNW,291,0.7,3.0,63,0.00,,,0.02,meteo_script,2013-04-09 22:40:00,
2013-04-09 18:45:00,62.2,49.4,30.02,WNW,291,0.7,2.0,63,0.00,,,0.02,meteo_script,2013-04-09 22:45:00,
2013-04-09 18:50:00,62.0,49.4,30.02,WNW,291,0.4,2.0,63,0.00,,,0.02,meteo_script,2013-04-09 22:50:00,
2013-04-09 19:00:00,61.4,49.3,30.02,WNW,291,0.1,1.0,64,0.00,,,0.02,meteo_script,2013-04-09 23:00:00,
2013-04-09 19:05:00,61.0,48.8,30.02,North,0,0.1,0.0,64,0.00,,,0.02,meteo_script,2013-04-09 23:05:00,
2013-04-09 19:15:00,60.0,48.6,30.03,North,0,0.0,1.0,66,0.00,,,0.02,meteo_script,2013-04-09 23:15:00,
2013-04-09 19:20:00,59.3,48.4,30.03,North,0,0.0,0.0,67,0.00,,,0.02,meteo_script,2013-04-09 23:20:00,
2013-04-09 19:30:00,58.6,48.3,30.03,North,0,0.0,0.0,68,0.00,,,0.02,meteo_script,2013-04-09 23:30:00,
2013-04-09 19:35:00,58.4,48.2,30.04,North,0,0.0,0.0,69,0.00,,,0.02,meteo_script,2013-04-09 23:35:00,
2013-04-09 19:40:00,58.2,48.1,30.04,North,0,0.0,0.0,69,0.00,,,0.02,meteo_script,2013-04-09 23:40:00,
2013-04-09 19:50:00,58.0,47.8,30.04,North,0,0.0,0.0,69,0.00,,,0.02,meteo_script,2013-04-09 23:50:00,
2013-04-09 19:55:00,57.7,47.6,30.04,North,0,0.0,0.0,69,0.00,,,0.02,meteo_script,2013-04-09 23:55:00,
2013-04-09 20:00:00,57.6,47.6,30.04,North,0,0.0,0.0,69,0.00,,,0.02,meteo_script,2013-04-10 00:00:00,
2013-04-09 20:10:00,57.4,47.8,30.05,North,0,0.0,0.0,70,0.00,,,0.02,meteo_script,2013-04-10 00:10:00,
2013-04-09 20:15:00,57.4,47.7,30.05,WNW,291,0.0,1.0,70,0.00,,,0.02,meteo_script,2013-04-10 00:15:00,
2013-04-09 20:20:00,57.2,47.9,30.05,WNW,291,0.0,1.0,71,0.00,,,0.02,meteo_script,2013-04-10 00:20:00,
2013-04-09 20:30:00,57.1,47.7,30.06,North,0,0.1,1.0,71,0.00,,,0.02,meteo_script,2013-04-10 00:30:00,
2013-04-09 20:35:00,56.8,47.5,30.07,North,0,0.0,0.0,71,0.00,,,0.02,meteo_script,2013-04-10 00:35:00,
2013-04-09 20:40:00,56.5,47.6,30.07,North,0,0.0,0.0,72,0.00,,,0.02,meteo_script,2013-04-10 00:40:00,
2013-04-09 20:50:00,56.3,47.5,30.08,WNW,291,0.1,2.0,72,0.00,,,0.02,meteo_script,2013-04-10 00:50:00,
2013-04-09 20:55:00,56.2,47.5,30.08,North,0,0.1,1.0,72,0.00,,,0.02,meteo_script,2013-04-10 00:55:00,
2013-04-09 21:00:00,56.1,47.4,30.08,North,0,0.0,0.0,72,0.00,,,0.02,meteo_script,2013-04-10 01:00:00,
2013-04-09 21:10:00,55.8,47.4,30.09,North,0,0.0,1.0,73,0.00,,,0.02,meteo_script,2013-04-10 01:10:00,
2013-04-09 21:15:00,55.5,47.3,30.09,North,0,0.0,0.0,74,0.00,,,0.02,meteo_script,2013-04-10 01:15:00,
2013-04-09 21:20:00,55.3,47.2,30.08,North,0,0.0,0.0,74,0.00,,,0.02,meteo_script,2013-04-10 01:20:00,
2013-04-09 21:30:00,55.4,47.3,30.08,WNW,291,0.0,1.0,74,0.00,,,0.02,meteo_script,2013-04-10 01:30:00,
2013-04-09 21:35:00,55.4,47.3,30.08,WNW,291,0.2,1.0,74,0.00,,,0.02,meteo_script,2013-04-10 01:35:00,
2013-04-09 21:40:00,55.5,47.3,30.08,WNW,291,0.1,1.0,74,0.00,,,0.02,meteo_script,2013-04-10 01:40:00,
2013-04-09 21:50:00,55.4,47.3,30.08,North,0,0.0,0.0,74,0.00,,,0.02,meteo_script,2013-04-10 01:50:00,
2013-04-09 21:55:00,55.4,47.6,30.08,North,0,0.0,1.0,75,0.00,,,0.02,meteo_script,2013-04-10 01:55:00,
2013-04-09 22:00:00,55.3,47.5,30.07,North,0,0.0,0.0,75,0.00,,,0.02,meteo_script,2013-04-10 02:00:00,
2013-04-09 22:10:00,54.9,47.5,30.07,North,0,0.0,0.0,76,0.00,,,0.02,meteo_script,2013-04-10 02:10:00,
2013-04-09 22:15:00,54.7,47.6,30.07,WNW,291,0.3,2.0,77,0.00,,,0.02,meteo_script,2013-04-10 02:15:00,
2013-04-09 22:25:00,54.4,47.7,30.08,WNW,291,0.4,2.0,78,0.00,,,0.02,meteo_script,2013-04-10 02:25:00,
2013-04-09 22:30:00,54.3,47.9,30.09,WNW,291,0.4,2.0,78,0.00,,,0.02,meteo_script,2013-04-10 02:30:00,
2013-04-09 22:35:00,54.2,47.8,30.09,WNW,291,0.3,1.0,79,0.00,,,0.02,meteo_script,2013-04-10 02:35:00,
2013-04-09 22:40:00,53.9,48.2,30.08,WNW,291,0.5,3.0,81,0.00,,,0.02,meteo_script,2013-04-10 02:40:00,
2013-04-09 22:50:00,52.9,48.5,30.07,South,183,1.0,3.0,85,0.00,,,0.02,meteo_script,2013-04-10 02:50:00,
2013-04-09 22:55:00,52.2,48.2,30.07,South,181,0.8,3.0,86,0.00,,,0.02,meteo_script,2013-04-10 02:55:00,
2013-04-09 23:00:00,51.6,48.0,30.06,ESE,118,0.7,3.0,87,0.00,,,0.02,meteo_script,2013-04-10 03:00:00,
2013-04-09 23:10:00,50.7,47.8,30.06,SW,216,0.8,2.0,90,0.00,,,0.02,meteo_script,2013-04-10 03:10:00,
2013-04-09 23:15:00,50.3,47.5,30.07,SSW,192,0.7,3.0,90,0.00,,,0.02,meteo_script,2013-04-10 03:15:00,
2013-04-09 23:20:00,50.1,47.5,30.07,SSW,192,0.4,2.0,91,0.00,,,0.02,meteo_script,2013-04-10 03:20:00,
2013-04-09 23:30:00,49.7,47.5,30.05,SSW,192,0.5,3.0,92,0.00,,,0.02,meteo_script,2013-04-10 03:30:00,
2013-04-09 23:35:00,49.5,47.3,30.05,East,88,0.3,2.0,92,0.00,,,0.02,meteo_script,2013-04-10 03:35:00,
2013-04-09 23:40:00,49.4,47.3,30.04,East,87,0.3,2.0,92,0.00,,,0.02,meteo_script,2013-04-10 03:40:00,
2013-04-09 23:50:00,48.7,46.9,30.03,North,0,0.3,1.0,93,0.00,,,0.02,meteo_script,2013-04-10 03:50:00,
2013-04-09 23:55:00,48.6,47.0,30.03,SW,229,0.1,1.0,94,0.00,,,0.02,meteo_script,2013-04-10 03:55:00,